EW1392 Weather Reports


Display with metric or nautical units.
time (UTC)temp
F
wind
direction
speed
MPH
gust
MPH
rain 1hr
in
rain 24hr
in
rain mn
in
humidity
%
barometer
mb
20260509131533 36 88 0.0 0.0 0.00 0.00 0.00 93 1020.0
20260509130026 36 88 0.0 0.0 0.00 0.00 0.00 92 1019.7
20260509124524 36 88 0.0 0.0 0.00 0.00 0.00 91 1019.7
20260509123022 37 88 0.0 0.0 0.00 0.00 0.00 91 1019.7
20260509121522 37 88 0.0 0.0 0.00 0.00 0.00 90 1019.6
20260509120024 37 88 0.0 0.0 0.00 0.00 0.00 90 1019.7
20260509114518 38 88 0.0 2.0 0.00 0.00 0.00 90 1019.8
20260509113016 38 88 0.0 0.0 0.00 0.00 0.00 89 1019.7
20260509111514 39 88 0.0 0.0 0.00 0.00 0.00 89 1019.7
20260509110013 39 88 0.0 0.0 0.00 0.00 0.00 89 1019.6
20260509104512 39 88 0.0 0.0 0.00 0.00 0.00 89 1019.7
20260509103011 39 88 0.0 0.0 0.00 0.00 0.00 88 1019.6
20260509101510 40 88 0.0 0.0 0.00 0.00 0.00 87 1019.6
20260509100008 40 88 0.0 0.0 0.00 0.00 0.00 86 1019.8
20260509094509 40 88 0.0 0.0 0.00 0.00 0.00 86 1019.8
20260509093005 41 88 0.0 0.0 0.00 0.00 0.00 85 1019.7
20260509091503 41 88 0.0 1.0 0.00 0.00 0.00 84 1019.8
20260509090002 42 88 0.0 0.0 0.00 0.00 0.00 83 1019.9
20260509084559 42 88 0.0 0.0 0.00 0.00 0.00 82 1019.8
20260509083057 43 88 0.0 0.0 0.00 0.00 0.00 81 1019.9
20260509081555 44 88 0.0 0.0 0.00 0.00 0.00 80 1019.7
20260509080104 44 88 0.0 0.0 0.00 0.00 0.00 80 1019.6
20260509074554 45 88 0.0 0.0 0.00 0.00 0.00 79 1019.5
20260509073114 46 88 0.0 0.0 0.00 0.00 0.00 78 1019.6
20260509071544 46 88 0.0 0.0 0.00 0.00 0.00 76 1019.3
20260509070044 47 88 0.0 4.0 0.00 0.00 0.00 74 1019.2
20260509064539 47 270 0.0 2.0 0.00 0.00 0.00 72 1018.9
20260509063037 48 267 0.0 0.0 0.00 0.00 0.00 70 1018.8
20260509061536 49 283 0.0 0.0 0.00 0.00 0.00 68 1018.7
20260509060047 50 284 0.0 1.0 0.00 0.00 0.00 66 1018.7
20260509054536 51 284 0.0 2.0 0.00 0.00 0.00 63 1018.7
20260509053035 51 282 0.0 2.0 0.00 0.00 0.00 62 1018.6
20260509051534 52 268 0.0 2.0 0.00 0.00 0.00 58 1018.4
20260509050034 53 268 0.0 5.0 0.00 0.00 0.00 56 1018.2
20260509044537 53 176 0.0 4.0 0.00 0.00 0.00 54 1018.1
20260509043035 53 217 0.0 4.0 0.00 0.00 0.00 55 1017.9
20260509041529 54 206 0.0 4.0 0.00 0.00 0.00 54 1017.7
20260509040027 54 178 0.0 5.0 0.00 0.00 0.00 52 1017.5
20260509034539 55 211 0.0 4.0 0.00 0.00 0.00 51 1017.3
20260509033024 55 151 1.0 7.0 0.00 0.00 0.00 49 1017.0
20260509031524 55 227 1.0 7.0 0.00 0.00 0.00 48 1016.8
20260509030022 56 227 0.0 8.0 0.00 0.00 0.00 49 1016.7
20260509024521 57 302 1.0 6.0 0.00 0.00 0.00 45 1016.5
20260509023019 58 228 1.0 7.0 0.00 0.00 0.00 42 1016.3
20260509021521 59 9 0.0 3.0 0.00 0.00 0.00 42 1016.0
20260509020017 60 201 0.0 8.0 0.00 0.00 0.00 39 1015.8
20260509014516 61 231 0.0 4.0 0.00 0.00 0.00 38 1015.7
20260509013018 61 261 0.0 3.0 0.00 0.00 0.00 38 1015.5
20260509011514 62 167 0.0 9.0 0.00 0.00 0.00 36 1015.5
20260509010019 62 304 1.0 5.0 0.00 0.00 0.00 36 1015.4
20260509004512 63 201 0.0 3.0 0.00 0.00 0.00 37 1015.3
20260509003018 63 322 0.0 7.0 0.00 0.00 0.00 35 1015.0
20260509001509 64 228 1.0 6.0 0.00 0.00 0.00 33 1015.0
20260509000008 64 279 0.0 6.0 0.00 0.00 0.00 35 1014.8
20260508234507 65 240 1.0 8.0 0.00 0.00 0.00 34 1014.6
20260508233005 65 207 0.0 8.0 0.00 0.00 0.00 32 1014.4
20260508231505 66 291 0.0 11.0 0.00 0.00 0.00 30 1014.4
20260508230004 66 220 1.0 7.0 0.00 0.00 0.00 31 1014.3
20260508224508 64 315 1.0 7.0 0.00 0.00 0.00 33 1014.4
20260508223006 63 282 0.0 3.0 0.00 0.00 0.00 36 1014.5
20260508221504 64 284 1.0 5.0 0.00 0.00 0.00 32 1014.5
20260508220002 63 186 1.0 7.0 0.00 0.00 0.00 33 1014.5
20260508214502 64 346 0.0 8.0 0.00 0.00 0.00 33 1014.4
20260508213059 63 281 0.0 8.0 0.00 0.00 0.00 34 1014.3
20260508211601 62 205 1.0 7.0 0.00 0.00 0.00 35 1014.1
20260508210059 64 213 1.0 7.0 0.00 0.00 0.00 35 1013.8
20260508204601 65 305 0.0 4.0 0.00 0.00 0.00 34 1013.6
20260508203101 66 284 0.0 9.0 0.00 0.00 0.00 34 1013.5
20260508201554 65 208 1.0 13.0 0.00 0.00 0.00 32 1013.7
20260508200054 64 209 1.0 9.0 0.00 0.00 0.00 36 1013.6
20260508194609 64 127 1.0 10.0 0.00 0.00 0.00 36 1013.5
20260508193105 64 96 0.0 7.0 0.00 0.00 0.00 38 1013.4
20260508191553 64 246 0.0 4.0 0.00 0.00 0.00 37 1013.2
20260508190052 66 124 1.0 4.0 0.00 0.00 0.00 32 1013.2
20260508184600 66 212 0.0 8.0 0.00 0.00 0.00 36 1013.2
20260508183048 64 191 0.0 2.0 0.00 0.00 0.00 37 1012.9
20260508181556 63 221 0.0 5.0 0.00 0.00 0.00 38 1013.3
20260508180044 63 227 0.0 3.0 0.00 0.00 0.00 42 1013.4
20260508174539 62 199 0.0 3.0 0.00 0.00 0.00 45 1013.5
20260508173038 62 253 0.0 3.0 0.00 0.00 0.00 46 1013.6
20260508171542 61 125 1.0 7.0 0.00 0.00 0.00 49 1013.6
20260508170032 60 273 0.0 5.0 0.00 0.00 0.00 49 1013.6
20260508164529 59 190 0.0 4.0 0.00 0.00 0.00 53 1013.6
20260508163026 58 201 0.0 2.0 0.00 0.00 0.00 53 1013.7
20260508161527 57 292 0.0 3.0 0.00 0.00 0.00 58 1013.6
20260508160048 57 192 0.0 2.0 0.00 0.00 0.00 52 1013.6
20260508154519 56 164 0.0 1.0 0.00 0.00 0.00 56 1013.7
20260508153018 54 316 0.0 4.0 0.00 0.00 0.00 62 1013.7
20260508151512 51 281 0.0 4.0 0.00 0.00 0.00 68 1013.6
20260508150015 47 69 0.0 6.0 0.00 0.00 0.00 84 1013.7
20260508144509 46 195 0.0 1.0 0.00 0.00 0.00 87 1013.7
20260508143008 44 195 0.0 0.0 0.00 0.00 0.00 88 1013.5
20260508141505 43 195 0.0 0.0 0.00 0.00 0.00 89 1013.5
20260508140004 43 195 0.0 0.0 0.00 0.00 0.00 89 1013.3
20260508134505 42 195 0.0 1.0 0.00 0.00 0.00 89 1013.4
20260508133102 42 195 0.0 0.0 0.00 0.00 0.00 89 1013.2